Preview of NWS' New Version of Forecast
This preview is not operational and should not be used for support decisions.
Latest weather observations around

Columbus - John Glenn Columbus International Airport (KCMH)

Using English Units (Switch to International System of Units)
Date/ Time (EDT) Wind (mph) Vis. (mi) Weather Sky Cond. Temp (°F) Rel. Humidity Wind Chill (°F) Heat Index (°F) Pressure Precip. (in)
Air Dwpt 6 hour Altimeter (inHg) Sea level (inHg) 1 hr 3 hr 6 hr
Max Min
Sep 23 04:51 S 3 10 Light Rain FEW095 OVC120 69 60     73%     29.94 29.92 0 0  
Sep 23 03:51 SSW 10 10 Cloudy FEW065 BKN095 OVC130 73 55     53%   73 29.94 29.91      
Sep 23 02:51 SSW 8 10 Cloudy OVC065 71 56     59%   71 29.95 29.92      
Sep 23 01:51 SSW 8 10 Mostly Cloudy FEW070 BKN250 72 56     57%   72 29.96 29.93      
Sep 23 00:51 SSW 7 10 Partly Cloudy FEW120 SCT250 73 56     55%   73 29.96 29.94      
Sep 22 23:51 S 7 10 Mostly Cloudy BKN250 73 57     57%   73 29.97 29.95      
Sep 22 22:51 S 6 10 Partly Cloudy SCT250 74 57     56%   74 29.97 29.95      
Sep 22 21:51 S 5 10 Partly Cloudy SCT250 76 57     52%   76 29.98 29.96      
Sep 22 20:51 S 6 10 Clear   78 56     47%   78 29.98 29.96      
Sep 22 19:51 SSW 6 10 Partly Cloudy SCT250 82 55     40%   81 29.98 29.96      
Sep 22 18:51 SSW 13 10 Partly Cloudy SCT250 85 53     34%   83 29.98 29.96      
Sep 22 17:51 SSW 13 10 Mostly Clear FEW250 87 53     31%   85 29.99 29.97      
Sep 22 16:51 SSW 14 10 Mostly Clear FEW065 FEW250 87 53     31%   85 30.01 29.98      
Sep 22 15:51 SW 18 10 Mostly Clear FEW065 FEW250 88 53     30%   86 30.02 30      
Sep 22 14:51 SSW 15 10 Mostly Clear FEW065 FEW250 88 52     29%   86 30.04 30.02      
Sep 22 13:51 SW 20 10 Mostly Clear and Windy FEW065 FEW250 87 52     30%   85 30.06 30.04      
Sep 22 12:51 SW 17 10 Mostly Clear FEW065 FEW250 87 52     30%   85 30.1 30.07      
Sep 22 11:51 SW 9 10 Mostly Clear FEW250 84 57     40%   83 30.12 30.1      
Sep 22 10:51 SSW 9 10 Partly Cloudy SCT070 SCT250 79 60     52%   79 30.14 30.12      
Sep 22 09:51 SSW 5 10 Mostly Cloudy SCT070 BKN250 73 64     73%   73 30.15 30.13      
Sep 22 08:51 SE 5 9 Mostly Cloudy BKN070 BKN250 70 64     81%     30.15 30.14      
Sep 22 07:51 SSE 3 7 Mostly Cloudy BKN070 BKN250 68 64     87%     30.15 30.13      
Sep 22 06:51 Calm 8 Partly Cloudy SCT250 67 64     90%     30.14 30.12      
Sep 22 05:51 Calm 10 Partly Cloudy SCT250 67 64     90%     30.13 30.11      
Sep 22 04:51 ESE 3 8 Partly Cloudy SCT250 66 64     93%     30.13 30.11      
Sep 22 03:51 Calm 9 Partly Cloudy SCT250 67 64     90%     30.15 30.13      
Sep 22 02:51 Calm 9 Partly Cloudy SCT250 67 65     93%     30.14 30.12      
Sep 22 01:51 Calm 9 Partly Cloudy SCT250 69 66     90%     30.15 30.13      
Sep 22 00:51 Calm 10 Partly Cloudy SCT170 SCT250 72 66     82%   73 30.16 30.14      
Sep 21 23:51 SSE 3 10 Mostly Cloudy BKN170 BKN250 74 66     76%   75 30.16 30.14      
Sep 21 22:51 SE 5 10 Mostly Cloudy BKN160 BKN250 74 67     79%   75 30.17 30.15      
Sep 21 21:51 ESE 3 10 Partly Cloudy FEW110 SCT250 73 67     81%   74 30.17 30.15      
Sep 21 20:51 ESE 3 10 Partly Cloudy SCT110 SCT250 74 68     82%   75 30.16 30.14 0    
Sep 21 19:51 NNE 6 7 Light Rain SCT048 SCT065 OVC100 74 68     82%   75 30.16 30.14 0   0
Sep 21 19:19 NW 13 10 Thunderstorms and Rain SCT050 SCT080 BKN150 BKN220 75 67     76%   76 30.17   0    
Sep 21 19:11   10 Thunderstorms and Rain SCT050 SCT080 BKN150 BKN220 76 66     71%   77 30.16   0    
Sep 21 18:51 S 5 10 Mostly Cloudy FEW043 SCT080 BKN150 BKN220 83 64     53%   84 30.15 30.14      
Sep 21 18:13 SW 7 9 Mostly Cloudy FEW043 SCT085 BKN250 83 64     53%   84 30.15        
Sep 21 17:51 SSW 7 10 Partly Cloudy FEW043 SCT085 SCT250 84 66     55%   86 30.16 30.14      
Sep 21 16:51 ESE 6 10 Mostly Cloudy BKN042 BKN050 BKN100 BKN250 83 67     59%   86 30.17 30.15      
Sep 21 15:51 SW 5 10 Partly Cloudy FEW030 SCT150 SCT250 83 66     57%   85 30.18 30.16      
Sep 21 14:51 S 6 10 Mostly Cloudy FEW030 SCT150 BKN250 82 68     63%   85 30.2 30.18      
Sep 21 13:51 SSW 6 10 Mostly Cloudy FEW010 SCT110 BKN150 77 68     74%   78 30.22 30.2 0   0
Sep 21 12:51 W 7 8 Light Rain SCT009 BKN080 OVC110 74 69     85%   75 30.25 30.23 0    
Sep 21 12:22 W 7 9 Cloudy SCT009 SCT080 OVC110 73 69     87%   74 30.26        
Sep 21 11:51 WNW 5 10 Cloudy FEW010 BKN060 OVC090 72 68     87%   73 30.26 30.24 0    
Sep 21 10:51 SW 5 4 Light Rain SCT012 BKN060 OVC100 70 67     90%     30.27 30.26 0 0  
Sep 21 10:21 W 14 10 Cloudy SCT036 BKN060 OVC110 73 66     79%   74 30.27        
Sep 21 09:51 SSW 6 9 Cloudy FEW030 SCT055 BKN110 OVC250 73 66     79%   74 30.25 30.24      
Sep 21 08:51 SW 7 8 Cloudy SCT065 OVC110 70 65     84%     30.24 30.22      
Sep 21 07:51 SSE 3 7 Mostly Cloudy FEW050 BKN110 69 65     87%     30.22 30.21      
Sep 21 06:51 S 3 8 Mostly Cloudy SCT050 BKN070 68 64     87%     30.22 30.2      
Sep 21 05:51 SSE 3 9 Clear CLR 68 65     90%     30.2 30.18      
Sep 21 04:51 SSE 6 9 Clear CLR 69 65     87%     30.19 30.17      
Sep 21 03:51 S 3 9 Mostly Clear FEW120 68 65     90%     30.18 30.16      
Sep 21 02:51 SSE 3 10 Mostly Clear FEW120 71 66     84%   72 30.18 30.16      
Sep 21 01:51 SSE 6 10 Mostly Clear FEW250 72 66     82%   73 30.18 30.16     0
Sep 21 00:51 SSW 5 10 Partly Cloudy FEW060 SCT250 73 66     79%   74 30.18 30.16      
Sep 20 23:51 S 3 10 Partly Cloudy FEW060 SCT250 74 66     76%   75 30.18 30.16      
Sep 20 22:51 SE 3 10 Mostly Cloudy SCT085 BKN250 73 66     79%   74 30.18 30.16   0  
Sep 20 21:51 SE 3 10 Mostly Cloudy BKN080 BKN140 74 68     82%   75 30.17 30.16 0    
Sep 20 20:51 ESE 5 8 Light Rain SCT055 BKN090 OVC120 73 69     87%   74 30.16 30.14 0    
Sep 20 20:47 ESE 5 8 Cloudy BKN045 BKN080 OVC100 73 70     89%   75 30.16   0    
Sep 20 19:51 7 9 Clear   74 68     82%   75 30.15 30.13 0   0
Sep 20 19:27 SSW 7 10 Thunderstorms BKN055 BKN080 BKN250 83 64     53%   84 30.14        
Sep 20 19:19 S 10 10 Thunderstorms SCT055 BKN085 BKN250 83 64     53%   84 30.13        
Sep 20 19:10 S 14 10 Mostly Cloudy SCT055 BKN085 BKN250 84 63     49%   85 30.12        
Sep 20 18:51 S 10 10 Partly Cloudy SCT055 SCT090 SCT250 84 64     51%   85 30.12 30.1      
Sep 20 18:18 SSE 7 10 Clear   85 63     48%   86 30.11        
Sep 20 17:51 S 10 10 Clear   86 63     46%   87 30.12 30.1      
Sep 20 16:51 S 10 10 Partly Cloudy SCT055 SCT075 SCT250 86 62     45%   87 30.12 30.1      
Sep 20 15:51 SSE 8 10 Partly Cloudy FEW060 SCT075 SCT250 88 62     42%   88 30.13 30.11      
Sep 20 14:51 SE 10 10 Partly Cloudy SCT055 SCT250 85 62     46%   86 30.14 30.11      
Sep 20 13:51 S 6 10 Mostly Clear FEW070 FEW200 84 63     49%   85 30.16 30.14      
Sep 20 12:51 5 10 Mostly Clear FEW070 81 62     53%   82 30.18 30.16      
Sep 20 11:51 S 6 10 Mostly Clear FEW070 78 62     58%   78 30.19 30.17      
Sep 20 10:51 SE 5 10 Mostly Clear FEW100 FEW250 74 61     64%   74 30.19 30.17      
Sep 20 09:51 S 7 10 Mostly Clear FEW250 70 60     71%     30.2 30.19      
Sep 20 08:51 SSE 5 10 Partly Cloudy SCT065 67 58     73%     30.2 30.19      
Sep 20 07:51 SE 3 10 Mostly Cloudy BKN070 66 58     75%     30.19 30.17      
Sep 20 06:51 ESE 5 10 Partly Cloudy SCT070 65 57     76%     30.18 30.16      
Sep 20 05:51 SE 5 10 Mostly Clear FEW090 65 56     73%     30.17 30.15      
Sep 20 04:51 ESE 5 10 Mostly Clear FEW080 66 55     68%     30.16 30.14      
Sep 20 03:51 SE 7 10 Mostly Clear FEW250 67 53     61%     30.16 30.14      
Sep 20 02:51   10 Mostly Clear FEW250 71 52     51%   70 30.15 30.13      
May 12 15:23 N 17 10 Cloudy BKN060 OVC080 81 59     47%   81 29.99        
May 12 02:51 Calm 10 Partly Cloudy SCT200 62 50     65%     29.97 29.95      
May 12 01:51 Calm 10 Partly Cloudy SCT200 63 49     60%     29.98 29.96      
May 11 22:51 7 10 Mostly Cloudy BKN160 BKN200 65 48     54%     29.98 29.97      
Jun 12 07:51 S 3 10 Partly Cloudy SCT060 SCT250 73 64     73%   73 30.13 30.11      
Jun 11 23:51 S 6 10 Mostly Clear FEW250 76 62     62%   76 30.06 30.04      
Jun 11 15:51 WSW 14 10 Mostly Cloudy BKN070 89 59     36%   88 30.09 30.07      
Jun 11 14:51 WSW 14 10 Partly Cloudy SCT070 87 58     37%   86 30.1 30.07      
Jun 11 11:51 WSW 17 10 Mostly Clear FEW050 85 59     42%   85 30.12 30.1      
Jun 10 18:51 S 13 10 Mostly Cloudy BKN250 84 51     32%   82 29.98 29.96      
Jun 10 11:51   10 Mostly Cloudy BKN250 81 56     42%   81 30.03 30.01      
Jun 08 04:51 NNE 3 10 Mostly Clear FEW040 FEW250 52 50     93%     30 29.99      
Jun 06 13:51 NNE 11 10 Partly Cloudy SCT049 SCT060 72 53     51%   71 29.89 29.88      
Jun 06 05:51 NNW 5 10 Partly Cloudy SCT020 56 53     90%     29.89 29.88      
Jun 05 22:51 N 8 10 Mostly Clear FEW110 62 55     78%     29.85 29.84